Regional Weather Roundup
Issued by NWS

Home | Current Version | Previous Version | Graphics & Text | Print | Product List | Glossary On
Versions: 1 2 3 4 5 6 7 8 9 10 11 12 13 14 15 16 17 18 19 20 21 22 23 24 25 26 27 28 29 30 31 32 33 34 35 36 37 38 39 40 41 42 43 44 45 46 47 48 49 50
000
ASUS45 KTFX 061919
RWRMT
MONTANA HOURLY WEATHER ROUNDUP
NATIONAL WEATHER SERVICE GREAT FALLS MT
1219 PM MST FRI MAR 6 2015

NOTE: "FAIR" INDICATES FEW OR NO CLOUDS BELOW 12000 FEET WITH NO
SIGNIFICANT WEATHER AND/OR OBSTRUCTIONS TO VISIBILITY.

* THESE STATIONS ARE NOT UNDER NWS QUALITY CONTROL. THEY DO NOT
   REPORT WEATHER SUCH AS PRECIPITATION OR FOG.

MTZ001>007-043-062000-
WEST OF THE DIVIDE
CITY           SKY/WX    TMP DP  RH WIND       PRES   REMARKS
KALISPELL      PTCLDY    39  21  48 NE5       30.35F WCI  35
MISSOULA       SUNNY     46  19  34 VRB3      30.38F
BUTTE          PTCLDY    48  18  30 NW16G28   30.32F
MULLAN PASS    PTSUNNY   39  18  43 VRB6      30.35S WCI  35
* ESSEX        N/A       43  18  37 NE2        N/A
* EUREKA APT   SUNNY     52  21  30 S7        30.30F
* HAMILTON APT SUNNY     57  18  22 SE5       30.35F
* LIBBY APT    PTCLDY    45  21  38 CALM      30.33F
* LINCOLN      N/A       42  17  36 S4         N/A
* LOOKOUT PASS N/A       48  20  33 SE3G11     N/A
* POLSON       N/A       50  22  33 S3G9       N/A
* RONAN APT    PTCLDY    48  27  44 SW5        N/A
* SEELEY LAKE  N/A       49  20  32 S2         N/A
* THOMP F APT  SUNNY     37  17  44 S5G10      N/A   WCI  33
$$

MTZ008-052>055-062000-
SOUTHWEST MONTANA
CITY           SKY/WX    TMP DP  RH WIND       PRES   REMARKS
BOZEMAN        PTSUNNY   52  18  26 SW6       30.30F
DILLON         PTSUNNY   52  14  22 SW9       30.34S
* W YELLOWSTON SUNNY     38  15  39 SW4G9      N/A
* THREE FORKS  CLOUDY    54  19  25 SW9        N/A
* BOULDER HILL N/A       46  15  29 SE2G8      N/A
* MONIDA PASS  N/A       40  12  32 W6G16      N/A   WCI  36
* RAYNOLDS PAS N/A       28  10  47 SE18       N/A   WCI  15
* WHITEHALL    N/A       48  14  25 SW10G18    N/A
* WISE RIVER   N/A       49  14  24 W9G15      N/A
$$

MTZ009>010-012-014-046-048-049-054-062000-
EAST SLOPES AND CENTRAL MONTANA
CITY           SKY/WX    TMP DP  RH WIND       PRES   REMARKS
CUT BANK       CLOUDY    50  19  29 W28G43    30.13S
GREAT FALLS    PTCLDY    55  18  23 W22G31    30.17R
HELENA         CLOUDY    50  18  28 W17       30.25F
MALMSTROM AFB  PTCLDY    54  19  25 W22G32    30.17S
* CONRAD       PTSUNNY   54  21  27 W33G40     N/A
* DEARBORN     N/A       50  18  28 S14G22     N/A
* EAST GLACIER N/A       40  20  45 W20G31     N/A   WCI  30
* MONARCH      N/A       43  16  34 W24G29     N/A
* PENDROY      N/A       47  23  39 NW19G29    N/A
* ROGERS PASS  N/A       37  16  42 SE9G30     N/A   WCI  30
* SWEET GRASS  N/A       49  21  33 NW26G37    N/A
* WHITE SULPH  N/A       49  18  29 NW21G29    N/A
$$

MTZ011-013-016-021-035-040-045-047-050-051-062000-
NORTH CENTRAL MONTANA
CITY           SKY/WX    TMP DP  RH WIND       PRES   REMARKS
HAVRE          PTCLDY    59  23  25 W21G28    30.08S
LEWISTOWN      PTCLDY    52  27  38 NW18G26   30.14S
* N BAR RANCH  SUNNY     50  23  35 NW16G28   30.15R
* CHINOOK      PTCLDY    55  21  27 W21G31    30.05F
* FORT BENTON  PTCLDY    57  19  23 W21G33    30.14S
* CHESTER      N/A       54  21  27 NW19G32    N/A
* DENTON       N/A       54  24  31 W28G34     N/A
* GEYSER       N/A       52  21  30 W29G35     N/A
* JUDITH GAP   N/A       49  24  38 NW16       N/A
* LOMA         N/A       56  21  26 W23G31     N/A
$$

MTZ017>020-022>027-061-062-062000-
NORTHEAST MONTANA
CITY           SKY/WX    TMP DP  RH WIND       PRES   REMARKS
GLASGOW        PTSUNNY   52  25  35 W14       30.04R
GLENDIVE       PTSUNNY   54  21  27 W22       30.04F
JORDAN         SUNNY     54  21  27 W22G30    30.07S
SIDNEY         PTSUNNY   50  21  32 W18G26    30.03S
WOLF POINT     CLOUDY    48  25  41 W17       30.02S
* BEAVER HILL  N/A       49  20  32 SW16G24    N/A
* CIRCLE       N/A       50  25  38 W10G22     N/A
* LINDSAY DVD  N/A       49  21  33 W18G30     N/A
* NAVAJO       N/A       44  27  51 W23G29     N/A
* PLENTYWOOD A PTCLDY    43  28  56 W15       29.95F
* POPLAR APT   PTCLDY    46  25  44 W13       30.02S
* SACO         N/A       52  24  34 W17        N/A
$$

MTZ028>042-056>058-062000-
SOUTHCENTRAL AND SOUTHEAST MONTANA
CITY           SKY/WX    TMP DP  RH WIND       PRES   REMARKS
BAKER          SUNNY     52  19  27 W22G35    30.06F
BILLINGS       PTSUNNY   57  16  20 W25G31    30.17R
LIVINGSTON     PTCLDY    54  16  22 W28G41    30.23S
MILES CITY     SUNNY     55  21  27 N/A       30.09F
* BIG TIMBER A PTCLDY    50  16  26 SW29G36   30.21R
* FORSYTH APT  SUNNY     55  19  24 W21G30    30.10F
* LAUREL APT   PTCLDY    57  18  22 W26G32     N/A
* ROUNDUP APT  SUNNY     55  16  21 SW16G26    N/A
* ALZADA       N/A       50  19  29 W14        N/A
* HYSHAM       N/A       54  17  23 NW17G24    N/A
* REED POINT   N/A       55  22  28 W20G32     N/A
* ROSCOE HILL  N/A       51  11  20 N2G11      N/A
$$

REGIONAL REPORTS...DAKOTAS
CITY           SKY/WX    TMP DP  RH WIND       PRES   REMARKS
WILLISTON      PTSUNNY   41  25  53 SW16      29.99F
DICKINSON      CLOUDY    50  18  28 W16       30.01F
BEACH          SUNNY     50  18  28 W22G29    30.02F
CROSBY         PTSUNNY   37  27  67 SW16      29.95F WCI  28
TIOGA          SUNNY     32  25  75 SW13      29.98F WCI  22
WATFORD CITY   PTCLDY    39  25  57 SW12      29.98F WCI  32
BISMARCK       CLOUDY    37  16  42 SW7       30.08F WCI  32
GRAND FORKS    PTSUNNY   36  18  48 W8        30.06F WCI  30
FARGO          PTCLDY    36  18  48 NW12      30.09S WCI  28
BUFFALO SD     PTCLDY    54  18  24 NW25G35   30.01F
RAPID CITY     PTCLDY    55  18  23 N20G26    30.12F
$$

REGIONAL REPORTS...WYOMING/IDAHO/WASHINGTON
CITY           SKY/WX    TMP DP  RH WIND       PRES   REMARKS
GILLETTE       SUNNY     48  19  32 NW21G29   30.19R
SHERIDAN       SUNNY     50  25  38 NW12      30.18F
CODY           PTCLDY    52  16  24 W14G20    30.22S
YELLOWSTONE LA SUNNY     28  12  51 E3        30.39F
SALMON         SUNNY     43  16  34 SE3       30.43F
MULLAN PASS    PTSUNNY   39  18  43 VRB6      30.35S WCI  35
SAND POINT     SUNNY     45  28  51 SE6       30.37F
SPOKANE        PTSUNNY   52  28  40 S8        30.37S
$$

REGIONAL REPORTS...ALBERTA
CITY           SKY/WX    TMP DP  RH WIND       PRES   REMARKS
CALGARY        PTCLDY    54  18  24 W15G28    30.06R
LETHBRIDGE     PTSUNNY   52  21  30 W29G43    30.12R
MEDICINE HAT   PTCLDY    54  27  35 W18G25    30.06R
EDMONTON       PTSUNNY   41  27  58 NW17G24   30.05R
WATERTON GATE  N/A       39  21  48 SW24G37    N/A   WCI  28
CARDSTON       N/A       43  25  49 W20G28     N/A
MILK RIVER     N/A       48  27  44 W24G32     N/A
$$

REGIONAL REPORTS...SASKATCHEWAN
CITY           SKY/WX    TMP DP  RH WIND       PRES   REMARKS
SWIFT CURRENT  CLOUDY    39  30  70 W22G28    29.95S WCI  29
MOOSE JAW      SUNNY     39  32  76 W18       29.89F WCI  30
REGINA         SUNNY     36  28  73 W17       29.86F WCI  26
VAL MARIE      N/A       48  28  46 NW13       N/A
ASSINIBOIA     N/A       37  28  70 W18        N/A   WCI  27
CORONACH       N/A       45  30  56 W16        N/A

$$



USA.gov is the U.S. government's official web portal to all federal, state and local government web resources and services.